Flag for Australia Weather past 2 weeks in Darwin, Northern Territory, Australia

Now
79 °F

Passing clouds.


Feels Like: 81 °F
Forecast: 76 / 94 °F
Wind: 9 mph from North

Location: Darwin Airport

Current Time: Oct 22, 2014 at 2:40:01 AM

Latest Report: Oct 22, 2014 at 2:00 AM


Visibility: N/A

Pressure: 29.92 "Hg

Humidity: 74%

Dew point: 70 °F

Location of DarwinLocation

Historic Weather in Darwin — Graph

°F

Darwin temperature yesterday

Maximum temperature yesterday: 91 °F (at 11:30 AM)
Minimum temperature yesterday: 75 °F (at 5:00 AM)
Average temperature yesterday: 84 °F

Past Weeks' High & Low Weather Summary

 TemperatureHumidityPressure
High97 °F (Oct 11, 4:30 PM)94% (Oct 7, 6:30 AM)30.01 "Hg (Oct 7, 6:30 AM)
Low73 °F (Oct 7, 6:30 AM)14% (Oct 17, 12:30 PM)29.77 "Hg (Oct 7, 3:30 PM)
Average84 °F65%29.87 "Hg
* Reported Oct 7 1:30 AM — Oct 22 1:30 AM, Darwin, Weather by CustomWeather, © 2014

Note: Actual official high and low records may vary slightly from our data, if they occured in-between our weather recording intervals... More about our weather records

Advertising

Darwin weather history for previous 24 hours

 ConditionsComfort  
Time TempWeatherWind HumidityBarometerVisibility
1:30 AM
Oct 22
81 °FPassing clouds.8 mph70%29.92 "HgN/A
1:00 AM81 °FPassing clouds.9 mph70%29.95 "HgN/A
12:30 AM81 °FPassing clouds.12 mph70%29.95 "HgN/A
12:00 AM81 °FPassing clouds.10 mph74%29.95 "HgN/A
11:30 PM
Oct 21
82 °FPassing clouds.15 mph70%29.98 "HgN/A
11:00 PM84 °FPassing clouds.14 mph66%29.98 "HgN/A
10:30 PM84 °FPassing clouds.15 mph70%29.95 "HgN/A
10:00 PM81 °FPassing clouds.10 mph62%29.95 "HgN/A
9:30 PM82 °FPassing clouds.5 mph55%29.95 "HgN/A
9:00 PM81 °FClear.6 mph62%29.92 "Hg10 mi
8:30 PM82 °FClear.No wind58%29.92 "Hg10 mi
8:00 PM84 °FClear.5 mph55%29.89 "Hg10 mi
7:30 PM86 °FClear.6 mph46%29.89 "Hg10 mi
7:00 PM88 °FSunny.7 mph40%29.89 "Hg10 mi
6:30 PM88 °FSunny.7 mph38%29.86 "Hg10 mi
6:00 PM90 °FSunny.8 mph36%29.86 "Hg10 mi
5:30 PM90 °FSunny.10 mph36%29.86 "Hg10 mi
5:00 PM90 °FSunny.15 mph38%29.83 "Hg10 mi
4:30 PM90 °FSunny.16 mph41%29.83 "Hg10 mi
4:00 PM90 °FSunny.16 mph41%29.83 "Hg10 mi
3:30 PM91 °FSunny.15 mph41%29.86 "Hg10 mi
3:00 PM91 °FSunny.16 mph41%29.86 "Hg10 mi
2:30 PM90 °FSunny.16 mph46%29.86 "Hg10 mi
2:00 PM90 °FSunny.16 mph43%29.89 "Hg10 mi
1:30 PM91 °FSunny.15 mph38%29.89 "Hg10 mi
1:00 PM91 °FSunny.15 mph41%29.92 "Hg10 mi
12:30 PM90 °FPassing clouds.14 mph49%29.95 "HgN/A
12:00 PM91 °FPassing clouds.8 mph30%29.95 "HgN/A
11:30 AM91 °FPassing clouds.12 mph34%29.98 "HgN/A
11:00 AM90 °FPassing clouds.13 mph38%29.98 "HgN/A
10:30 AM90 °FScattered clouds.14 mph43%30.01 "HgN/A
10:00 AM88 °FScattered clouds.13 mph49%30.01 "HgN/A
9:30 AM86 °FScattered clouds.13 mph55%30.01 "HgN/A
9:00 AM84 °FPassing clouds.12 mph58%30.01 "HgN/A
8:30 AM84 °FPassing clouds.10 mph62%29.98 "HgN/A
8:00 AM82 °FPassing clouds.7 mph70%29.98 "HgN/A
7:30 AM81 °FPassing clouds.5 mph74%29.98 "HgN/A
7:00 AM77 °FPassing clouds.5 mph83%29.95 "HgN/A
6:30 AM75 °FClear.6 mph89%29.95 "Hg10 mi
6:00 AM75 °FPassing clouds.6 mph89%29.95 "HgN/A
5:30 AM75 °FClear.6 mph89%29.95 "Hg10 mi
5:00 AM75 °FClear.6 mph89%29.92 "Hg10 mi
4:30 AM77 °FClear.7 mph83%29.92 "Hg10 mi
4:00 AM77 °FClear.6 mph83%29.92 "Hg10 mi
3:30 AM77 °FClear.7 mph83%29.92 "Hg10 mi
3:00 AM77 °FClear.6 mph83%29.92 "Hg10 mi
2:30 AM79 °FClear.8 mph79%29.92 "Hg10 mi
2:00 AM79 °FClear.5 mph79%29.95 "Hg10 mi
Weather by CustomWeather, © 2014

See weather overviewHow to use our weather pages